CW9197 Weather Reports


time (UTC)temp
C
wind
direction
speed
KPH
gust
KPH
rain 1hr
cm
rain 24hr
cm
rain mn
cm
humidity
%
barometer
mb
20260506134504 11 215 6.4 11.3 0.00 0.00 0.00 37 1012.1
20260506133503 10 283 8.0 14.5 0.00 0.00 0.00 33 1012.1
20260506132503 11 277 8.0 20.9 0.00 0.00 0.00 34 1012.0
20260506131504 10 280 8.0 25.7 0.00 0.00 0.00 33 1012.0
20260506130503 11 221 6.4 14.5 0.00 0.00 0.00 36 1011.9
20260506125524 8 240 8.0 22.5 0.00 0.00 0.00 36 1011.9
20260506124504 9 244 6.4 16.1 0.00 0.00 0.00 38 1011.9
20260506123504 12 209 9.7 14.5 0.00 0.00 0.00 36 1011.7
20260506122503 11 235 6.4 14.5 0.00 0.00 0.00 36 1011.7
20260506121505 10 237 8.0 14.5 0.00 0.00 0.00 38 1011.7
20260506120504 9 267 11.3 33.8 0.00 0.00 0.00 37 1011.7
20260506115504 10 286 8.0 16.1 0.00 0.00 0.00 38 1011.6
20260506114504 10 249 6.4 16.1 0.00 0.00 0.00 40 1011.6
20260506113503 11 209 4.8 11.3 0.00 0.00 0.00 41 1011.5
20260506112505 10 236 8.0 19.3 0.00 0.00 0.00 41 1011.4
20260506111504 10 246 6.4 16.1 0.00 0.00 0.00 38 1011.4
20260506110504 11 251 9.7 20.9 0.00 0.00 0.00 37 1011.3
20260506105525 10 254 9.7 20.9 0.00 0.00 0.00 38 1011.2
20260506104504 12 228 9.7 24.1 0.00 0.00 0.00 39 1011.0
20260506103503 11 256 11.3 25.7 0.00 0.00 0.00 39 1011.0
20260506102505 12 225 6.4 9.7 0.00 0.00 0.00 41 1010.9
20260506101504 11 280 11.3 24.1 0.00 0.00 0.00 37 1010.8
20260506100524 11 210 8.0 16.1 0.00 0.00 0.00 41 1010.8
20260506095505 10 247 6.4 17.7 0.00 0.00 0.00 41 1010.8
20260506094504 12 217 6.4 16.1 0.00 0.00 0.00 43 1010.6
20260506093523 11 205 9.7 19.3 0.00 0.00 0.00 43 1010.5
20260506092503 9 254 9.7 20.9 0.00 0.00 0.00 43 1010.5
20260506091504 11 222 4.8 12.9 0.00 0.00 0.00 44 1010.3
20260506090504 10 208 9.7 19.3 0.00 0.00 0.00 44 1010.3
20260506085504 10 213 6.4 11.3 0.00 0.00 0.00 49 1010.3
20260506084503 9 220 8.0 27.4 0.00 0.00 0.00 52 1010.3
20260506083505 9 225 6.4 17.7 0.00 0.00 0.00 51 1010.2
20260506082524 9 214 8.0 17.7 0.00 0.00 0.00 51 1010.1
20260506081504 8 249 8.0 19.3 0.00 0.00 0.00 48 1010.0
20260506080503 10 225 6.4 24.1 0.00 0.00 0.00 50 1009.9
20260506073504 8 240 8.0 17.7 0.00 0.00 0.00 52 1009.7
20260506072504 8 254 9.7 22.5 0.00 0.00 0.00 51 1009.6
20260506071504 8 259 9.7 17.7 0.00 0.00 0.00 51 1009.6
20260506070503 8 263 6.4 27.4 0.00 0.00 0.00 54 1009.5
20260506062505 9 228 6.4 16.1 0.00 0.00 0.00 59 1009.1
20260506061504 8 206 4.8 9.7 0.00 0.00 0.00 61 1009.1
20260506060504 8 224 6.4 11.3 0.00 0.00 0.00 63 1009.0
20260506050503 6 217 4.8 9.7 0.00 0.00 0.00 72 1008.4
20260506044504 6 213 4.8 9.7 0.00 0.00 0.00 70 1008.1
20260506043504 6 217 4.8 9.7 0.00 0.00 0.00 69 1008.1
20260506042503 5 211 4.8 9.7 0.00 0.00 0.00 70 1008.0
20260506041503 5 206 4.8 6.4 0.00 0.00 0.00 72 1007.9
20260506040505 5 203 4.8 8.0 0.00 0.00 0.00 72 1007.8
20260506035544 4 206 6.4 11.3 0.00 0.00 0.00 73 1007.7
20260506034503 3 211 4.8 9.7 0.00 0.00 0.00 73 1007.6
20260506033523 3 205 4.8 9.7 0.00 0.00 0.00 73 1007.5
20260506032503 3 206 3.2 6.4 0.00 0.00 0.00 75 1007.5
20260506031505 2 200 4.8 8.0 0.00 0.00 0.00 75 1007.4
20260506030504 2 199 4.8 6.4 0.00 0.00 0.00 77 1007.2
20260506025504 1 191 3.2 6.4 0.00 0.00 0.00 81 1007.2
20260506024503 0 197 4.8 11.3 0.00 0.00 0.00 84 1007.1
20260506023505 0 196 3.2 4.8 0.00 0.00 0.00 85 1007.1
20260506022524 0 201 3.2 8.0 0.00 0.00 0.00 85 1007.0
20260506021504 0 206 4.8 6.4 0.00 0.00 0.00 86 1007.0
20260506020523 0 202 3.2 4.8 0.00 0.00 0.00 86 1007.0
20260506015524 0 202 3.2 6.4 0.00 0.00 0.00 87 1006.9
20260506014505 0 199 3.2 6.4 0.00 0.00 0.00 86 1006.9
20260506013524 0 206 3.2 6.4 0.00 0.00 0.00 86 1006.7
20260506012504 0 201 3.2 4.8 0.00 0.00 0.00 85 1006.6
20260506011503 0 197 3.2 4.8 0.00 0.00 0.00 85 1006.5
20260506010504 0 195 3.2 4.8 0.00 0.00 0.00 84 1006.5
20260506005505 0 222 1.6 4.8 0.00 0.00 0.00 84 1006.4
20260506004504 0 229 1.6 4.8 0.00 0.00 0.00 84 1006.3
20260506003504 0 228 1.6 3.2 0.00 0.00 0.00 85 1006.2
20260506002503 0 238 3.2 6.4 0.00 0.00 0.00 84 1006.1
20260506001503 1 230 3.2 6.4 0.00 0.00 0.00 83 1006.0
20260506000504 1 241 3.2 9.7 0.00 0.00 0.00 82 1005.9
20260505235524 1 240 3.2 8.0 0.00 0.00 0.00 83 1005.8
20260505234523 1 239 3.2 8.0 0.00 0.00 0.00 83 1005.7
20260505233503 1 230 1.6 4.8 0.00 0.00 0.00 84 1005.6
20260505232525 1 226 3.2 8.0 0.00 0.00 0.00 84 1005.6
20260505231504 1 232 3.2 8.0 0.00 0.00 0.00 83 1005.5
20260505230504 1 211 3.2 6.4 0.00 0.00 0.00 84 1005.4
20260505225504 1 216 3.2 6.4 0.00 0.00 0.00 84 1005.4
20260505224503 1 210 3.2 8.0 0.00 0.00 0.00 84 1005.3
20260505223504 1 209 3.2 6.4 0.00 0.00 0.00 84 1005.3
20260505222524 1 220 3.2 4.8 0.00 0.00 0.00 84 1005.3
20260505221524 1 212 3.2 4.8 0.00 0.00 0.00 83 1005.2
20260505220503 1 211 3.2 4.8 0.00 0.00 0.00 82 1005.2
20260505215505 1 201 3.2 4.8 0.00 0.00 0.00 81 1005.2
20260505214504 1 200 3.2 4.8 0.00 0.00 0.00 80 1005.1
20260505213503 1 195 3.2 6.4 0.00 0.00 0.00 80 1005.1
20260505212505 2 187 3.2 3.2 0.00 0.00 0.00 79 1005.0
20260505211504 2 185 1.6 4.8 0.00 0.00 0.00 78 1004.9
20260505210503 2 198 3.2 3.2 0.00 0.00 0.00 78 1004.9
20260505205506 2 202 1.6 3.2 0.00 0.00 0.00 79 1004.8
20260505204505 2 206 3.2 6.4 0.00 0.00 0.00 78 1004.8
20260505203503 2 206 3.2 4.8 0.00 0.00 0.00 79 1004.7
20260505202543 2 207 1.6 3.2 0.00 0.00 0.00 79 1004.6
20260505201505 2 226 1.6 3.2 0.00 0.00 0.00 79 1004.5
20260505200504 2 215 1.6 3.2 0.00 0.00 0.00 78 1004.5
20260505195524 2 216 1.6 4.8 0.00 0.00 0.00 79 1004.4
20260505194504 2 211 3.2 8.0 0.00 0.00 0.00 78 1004.4
20260505193503 2 225 1.6 6.4 0.00 0.00 0.00 80 1004.4
20260505192524 2 221 3.2 4.8 0.00 0.00 0.00 80 1004.4
20260505191524 2 223 3.2 4.8 0.00 0.00 0.00 80 1004.4
20260505190524 2 233 3.2 4.8 0.00 0.00 0.00 79 1004.4
20260505185504 3 217 4.8 9.7 0.00 0.00 0.00 79 1004.4
20260505184503 3 207 6.4 9.7 0.00 0.00 0.00 79 1004.3
20260505183504 3 208 4.8 8.0 0.00 0.00 0.00 80 1004.2
20260505182504 3 207 4.8 8.0 0.00 0.00 0.00 80 1004.2
20260505181504 3 209 4.8 6.4 0.00 0.00 0.00 81 1004.1
20260505180503 4 207 4.8 8.0 0.00 0.00 0.00 80 1004.1
20260505175503 4 207 4.8 8.0 0.00 0.00 0.00 80 1004.0
20260505174504 4 208 4.8 6.4 0.00 0.00 0.00 81 1004.0
20260505173524 5 211 4.8 6.4 0.00 0.00 0.00 79 1003.9
20260505172504 4 208 6.4 8.0 0.00 0.00 0.00 81 1003.9
20260505171503 5 207 6.4 8.0 0.00 0.00 0.00 80 1003.9
20260505170505 5 209 6.4 9.7 0.00 0.00 0.00 81 1003.9
20260505165504 5 210 6.4 9.7 0.00 0.00 0.00 79 1003.8
20260505164504 5 210 4.8 6.4 0.00 0.00 0.00 79 1003.9
20260505163504 5 203 3.2 4.8 0.00 0.00 0.00 79 1003.9
20260505162503 5 274 6.4 17.7 0.00 0.00 0.00 81 1004.1
20260505161545 5 267 12.9 37.0 0.00 0.00 0.00 73 1004.3
20260505160504 5 330 4.8 11.3 0.00 0.00 0.00 74 1003.9
20260505152525 8 207 6.4 17.7 0.00 0.00 0.00 64 1003.3
20260505151504 7 202 6.4 11.3 0.00 0.00 0.00 68 1003.3
20260505150504 7 209 4.8 8.0 0.00 0.00 0.00 69 1003.3
20260505140503 8 213 9.7 19.3 0.00 0.00 0.00 58 1002.6